Theta_e
295 295 295 294 293 293 294 294 294 295 296 296 297 297 298 298 301 303 304 303 301 301 301 302 302 302 302 302 295 301 299 299 298 298 298 296 298 300 300 302 306 308 307 305 304 310 311 306 308 313 309 308 308 308
295 295 295 294 293 293 293 294 294 295 295 296 296 297 297 298 299 300 299 300 300 299 298 298 297 298 301 302 301 300 300 300 300 294 294 295 298 295 300 300 302 306 304 306 304 304 306 306 306 307 308 307 307 307
295 295 294 294 292 293 293 294 295 295 296 296 296 296 297 297 298 300 299 298 298 299 299 299 298 297 301 302 302 299 299 300 299 299 299 294 299 294 296 298 299 299 302 303 302 307 305 304 307 309 306 306 307 309
296 295 294 293 292 293 293 294 295 295 296 296 296 296 296 297 298 298 299 301 300 298 299 300 299 297 298 297 297 299 300 300 300 299 299 296 296 299 297 299 299 300 301 304 303 306 304 308 308 306 307 309 310 311
296 295 294 293 292 293 293 294 295 296 296 296 295 295 296 297 298 300 303 303 304 301 299 300 300 300 299 299 300 300 300 299 298 298 297 296 299 300 299 299 304 304 305 304 305 304 304 304 305 306 306 309 310 310
296 295 294 292 292 293 294 294 295 296 296 296 296 295 295 296 299 302 299 302 299 299 302 299 300 301 301 301 301 300 300 299 297 297 297 297 299 301 301 301 304 302 303 303 304 303 303 304 305 306 307 310 311 311
296 294 293 292 292 293 294 294 295 296 296 296 296 295 295 295 296 296 296 302 303 302 301 300 301 302 302 301 301 301 301 299 297 297 298 298 299 301 301 303 302 302 302 303 304 304 305 306 307 309 311 312 312 313
295 294 293 292 292 293 294 294 295 296 296 296 296 295 294 295 296 297 300 300 301 303 303 300 300 301 301 301 302 302 301 299 299 298 299 299 301 301 304 303 302 302 301 304 305 305 305 307 309 312 312 312 313 313
295 294 293 292 292 293 294 294 295 295 296 296 297 296 295 295 295 297 297 297 299 300 302 302 298 300 302 302 304 302 302 297 300 299 300 301 299 304 304 302 302 301 302 304 308 308 309 310 312 312 312 312 312 312
296 294 293 293 292 293 293 294 295 295 295 296 296 297 295 295 296 296 297 297 298 300 301 301 301 299 301 302 303 303 302 296 298 301 303 302 300 302 303 303 301 303 305 311 312 312 312 312 313 312 313 311 311 311
297 298 296 293 292 293 294 294 295 295 295 296 296 295 296 296 295 296 297 299 300 299 301 301 302 301 301 300 299 301 298 298 299 299 297 296 302 303 303 303 302 305 307 309 312 311 312 312 311 311 311 311 311 311
297 298 297 296 294 294 294 294 294 295 295 296 296 296 296 295 297 298 289 298 298 299 301 302 302 302 302 301 301 302 298 297 299 303 295 297 298 304 303 303 302 304 305 307 311 312 312 310 310 314 312 310 311 311
297 297 295 293 293 294 294 294 295 297 297 297 297 296 296 295 289 293 291 296 296 301 301 302 302 303 302 302 301 301 300 297 301 298 301 295 304 305 303 303 304 304 305 307 308 310 310 311 312 313 313 311 311 311
297 297 295 294 293 293 294 296 297 297 297 296 296 291 291 290 295 296 297 298 301 301 302 302 303 302 303 302 301 302 300 300 299 302 296 300 304 305 304 303 304 304 304 305 306 307 309 310 311 311 313 313 312 311
297 297 296 293 293 294 295 296 297 297 298 298 298 293 296 298 299 301 301 302 301 301 300 301 300 301 301 300 300 298 299 301 301 298 295 304 305 304 304 304 303 304 303 303 305 306 307 309 310 310 310 312 311 311
297 297 297 294 293 294 294 296 297 297 297 298 298 297 298 299 300 300 300 300 300 300 301 301 301 299 300 300 301 300 301 302 299 302 304 304 304 301 302 304 303 304 304 303 304 305 306 306 307 307 306 309 311 313
297 298 297 294 293 294 295 296 297 296 296 298 298 298 299 300 300 300 300 300 299 299 298 298 299 300 300 300 301 299 301 300 304 304 304 304 302 300 299 299 302 301 304 304 303 304 306 304 302 306 303 303 304 309
298 297 297 295 293 294 295 295 295 295 295 297 298 299 299 300 300 300 300 299 298 298 298 297 297 296 297 300 299 297 298 299 299 301 301 302 302 299 298 298 298 303 303 304 304 304 305 305 302 300 301 300 302 302
298 297 297 295 294 294 294 294 294 294 295 297 298 299 300 300 300 300 300 299 299 299 298 298 296 294 294 296 297 298 297 297 297 297 297 297 297 297 297 297 297 298 300 300 301 304 304 304 304 305 303 300 299 300
297 296 297 296 294 294 293 293 294 295 297 297 298 299 299 300 300 299 299 299 299 298 298 297 297 297 297 297 297 297 297 297 297 297 296 296 296 296 296 297 297 297 297 297 298 302 304 303 303 303 307 306 301 299
296 296 296 294 294 295 294 293 294 295 298 298 298 298 298 297 298 298 299 299 299 299 299 299 298 298 298 298 298 298 298 297 297 297 297 297 296 297 298 298 298 298 298 298 297 304 304 303 302 302 304 307 304 300
296 295 293 293 294 295 295 295 295 296 297 297 297 297 298 298 298 298 299 299 299 299 299 299 299 299 299 299 299 298 298 298 297 297 297 297 296 296 296 296 297 297 297 298 298 299 302 303 302 302 302 302 299 299
294 293 293 294 295 295 295 297 297 297 297 298 297 298 298 298 299 299 299 298 298 298 298 298 298 298 298 299 299 299 298 298 298 297 297 296 296 297 297 297 298 298 299 299 299 298 300 303 303 303 301 301 301 299
293 293 294 295 295 294 296 297 297 297 297 298 297 296 297 298 298 298 296 298 298 298 298 298 298 298 297 298 297 297 297 297 297 297 297 297 298 298 298 299 299 299 299 299 299 299 299 300 303 303 303 303 301 299
295 295 295 294 294 294 295 295 296 296 290 297 295 293 297 298 295 294 295 297 298 298 298 297 297 297 297 297 298 297 297 298 297 297 297 299 299 299 299 299 299 299 299 300 300 300 300 301 300 300 302 302 302 299
294 294 294 294 294 292 294 290 288 290 294 292 296 297 297 297 293 292 296 297 298 298 297 295 295 296 297 297 296 297 297 297 298 299 299 297 294 295 298 299 300 300 300 301 301 301 301 300 300 302 302 301 300 299
294 293 295 295 295 295 296 296 296 296 288 289 295 295 292 288 288 295 297 297 298 298 297 295 295 296 297 297 297 297 297 298 298 296 293 293 292 292 293 294 294 294 294 296 296 296 298 300 301 301 302 302 302 301
296 294 294 295 296 295 294 295 291 287 294 296 297 289 290 290 292 297 298 298 297 296 295 295 297 298 299 298 299 299 299 295 293 293 293 293 293 293 292 292 292 293 293 294 296 297 297 297 297 298 299 299 300 300
295 295 295 295 296 296 296 295 295 296 296 296 295 292 296 296 297 297 297 297 297 296 295 294 294 293 293 297 299 299 297 296 295 295 296 295 294 293 293 293 293 293 293 293 294 295 296 297 297 298 298 298 298 298
295 296 295 295 291 288 296 296 296 297 296 297 297 297 297 297 297 297 297 297 297 296 296 295 294 294 293 293 294 294 294 294 295 295 294 294 294 294 293 293 293 293 293 294 294 295 295 296 297 297 297 297 298 298
296 296 295 295 295 295 296 296 296 296 297 296 296 296 296 297 297 297 297 296 296 296 295 295 295 294 294 294 294 294 294 294 294 294 294 293 293 293 293 294 294 294 295 295 296 296 296 296 297 297 297 297 297 298
296 295 294 291 293 295 295 296 296 296 296 296 296 296 296 296 296 296 297 296 296 296 295 295 294 294 294 293 293 293 293 293 293 293 293 293 294 294 294 294 295 295 295 295 296 296 296 297 297 297 297 297 297 297
295 295 294 294 294 295 295 296 295 295 296 295 296 296 296 296 296 296 295 295 295 295 295 294 294 294 294 293 294 294 294 294 294 294 294 294 294 294 294 294 294 294 294 294 294 295 295 295 296 296 296 296 297 297
Wind_Speed
32 30 27 25 24 22 20 18 17 16 14 13 15 14 14 14 14 12 16 12 9 16 21 14 12 10 8 6 3 4 4 8 6 4 3 2 3 2 3 3 2 4 4 2 3 3 2 20 14 5 7 22 26 30
34 31 29 27 25 23 21 20 18 17 16 15 15 15 15 14 13 12 23 22 29 25 23 17 16 13 11 9 5 9 5 2 6 3 2 1 2 3 2 2 4 2 1 2 1 3 9 19 16 20 17 22 28 32
34 32 30 29 27 25 23 21 20 18 16 16 16 16 16 16 13 10 25 32 39 38 25 18 17 13 10 8 4 4 4 3 4 4 2 1 2 2 1 3 4 6 5 2 4 3 17 30 23 12 24 30 34 25
34 32 32 30 28 26 24 22 20 19 18 17 18 18 19 20 23 25 30 16 17 12 8 8 10 13 10 8 11 13 11 5 3 4 4 2 0 2 1 4 1 3 7 5 5 6 27 5 12 26 33 31 26 19
35 33 33 32 30 27 25 23 21 19 18 18 18 19 18 20 22 13 16 17 8 6 8 10 12 12 10 11 12 11 11 7 5 4 4 1 2 4 4 2 1 5 4 3 3 14 9 30 31 30 33 30 26 21
35 33 33 33 31 28 26 24 21 20 19 17 17 17 17 18 21 25 10 13 29 32 10 4 6 6 8 9 6 7 11 12 7 3 2 3 4 3 1 2 1 14 22 19 11 23 33 38 33 27 23 32 20 14
35 34 33 34 32 29 27 24 22 20 19 18 17 17 16 13 11 3 8 17 14 12 7 6 4 3 4 4 1 3 7 7 5 3 4 4 3 5 1 2 8 24 25 26 18 16 19 11 14 27 26 24 10 3
35 35 34 34 32 30 27 24 22 21 19 18 17 17 17 19 21 21 20 16 11 10 6 5 1 3 7 3 2 1 4 5 5 3 3 4 6 1 2 11 26 25 29 19 11 13 22 24 21 20 21 20 5 10
37 35 35 35 33 30 27 24 22 20 18 17 17 16 15 12 9 15 15 12 10 7 4 4 4 3 5 2 3 2 2 3 4 4 2 5 3 2 8 22 26 34 26 28 19 11 9 11 15 18 19 14 14 25
40 37 36 34 32 29 27 24 21 19 17 14 11 6 6 6 13 12 4 3 4 5 5 4 4 2 2 2 3 2 1 2 1 2 2 3 2 10 18 22 30 34 32 20 14 6 7 9 12 11 15 5 7 20
41 39 37 33 32 30 27 24 21 18 15 8 4 6 11 9 5 5 4 5 4 3 3 3 7 6 4 3 1 2 2 0 2 2 2 2 2 14 19 23 35 37 31 25 14 8 7 7 8 11 7 7 7 15
38 35 37 40 35 30 26 22 19 15 8 8 14 14 6 4 5 5 2 1 2 3 5 7 6 5 4 2 3 2 2 2 2 2 3 3 4 15 24 20 31 34 34 29 21 16 10 6 4 6 6 4 8 10
39 36 37 38 34 30 26 22 18 20 19 11 5 4 2 3 7 4 2 1 1 6 7 8 6 4 3 2 3 2 2 3 1 3 1 4 11 16 18 16 24 28 33 30 28 23 19 13 8 8 6 6 5 6
40 37 38 38 34 30 27 25 25 18 7 3 3 4 3 2 2 4 4 6 6 13 11 8 6 3 3 2 2 2 2 1 3 2 3 4 10 12 13 16 20 25 32 32 27 26 23 20 19 14 10 6 4 4
39 38 37 39 34 31 28 26 20 13 5 4 3 3 2 1 3 8 12 16 15 12 9 6 4 2 2 3 1 2 3 0 2 4 3 5 7 11 11 13 18 13 24 32 27 23 23 20 17 18 17 14 7 5
40 36 36 41 35 32 27 25 17 7 4 3 3 3 3 7 6 8 16 13 12 11 9 5 3 2 1 3 2 3 1 2 3 3 1 2 5 12 13 9 13 16 14 23 25 24 19 19 17 15 14 13 13 10
45 26 41 42 37 33 26 23 9 4 3 3 3 2 2 14 10 13 13 10 7 6 3 4 2 3 0 2 1 2 1 3 6 1 3 2 5 8 12 16 12 15 14 12 21 25 19 16 16 16 17 17 14 10
35 39 43 44 41 32 24 11 4 3 3 2 4 5 5 11 11 10 14 10 9 5 4 1 2 2 1 2 2 1 8 8 10 7 8 5 7 8 11 14 16 13 11 14 12 19 18 20 16 16 17 15 12 14
32 40 45 43 41 23 7 5 3 3 2 3 2 5 6 10 9 7 9 8 5 5 5 1 1 2 3 4 4 7 6 6 7 10 12 12 11 11 14 14 12 13 13 14 9 9 14 19 13 12 17 18 14 11
38 41 42 41 28 6 6 4 7 5 5 4 5 7 5 7 10 5 7 7 3 3 4 4 6 9 8 5 7 9 9 11 13 16 17 17 14 14 16 16 17 18 18 18 16 7 9 14 16 17 17 18 17 15
40 42 44 34 16 7 5 7 7 6 7 5 8 8 4 6 10 9 8 10 9 5 6 15 18 17 16 17 18 17 17 15 16 17 18 18 17 18 16 16 14 16 17 16 12 8 3 7 16 19 16 15 17 15
44 50 42 21 6 3 4 7 7 12 7 7 10 10 3 5 8 11 10 14 12 23 27 29 27 22 21 21 19 17 16 18 18 17 16 18 23 24 22 21 21 21 20 18 16 12 10 8 8 14 16 16 18 17
55 45 23 7 4 3 5 13 5 7 6 12 12 6 4 5 6 7 5 9 14 25 24 23 21 20 22 21 19 18 17 16 18 20 20 20 17 17 16 16 17 17 18 18 15 15 13 11 9 12 13 16 20 19
48 15 8 10 6 6 11 6 6 7 6 7 7 2 5 8 9 6 5 6 18 20 18 15 14 14 15 16 16 15 14 13 14 15 15 17 20 19 17 17 16 16 16 18 17 17 16 16 13 13 17 21 20 21
10 11 10 7 8 9 5 7 6 4 3 7 4 2 5 8 4 3 3 7 14 16 13 12 14 16 18 17 16 15 14 14 14 16 15 14 16 18 18 18 18 18 16 16 18 18 18 17 19 22 21 22 23 21
5 9 12 10 12 8 9 6 6 6 5 3 5 8 8 5 2 5 5 8 10 7 7 7 8 10 16 19 21 18 15 14 13 14 16 15 16 19 21 22 22 22 16 16 17 19 21 22 20 19 19 21 21 21
6 7 11 11 13 18 8 8 15 8 4 5 8 7 4 3 6 7 9 13 15 7 7 8 10 12 13 16 16 16 17 17 16 18 20 19 19 21 24 28 30 29 26 24 24 23 25 25 23 23 23 22 24 25
6 14 11 22 15 13 8 8 6 5 7 9 15 5 10 9 5 6 5 5 8 9 13 14 15 16 18 17 18 20 21 20 23 26 28 29 29 29 28 27 27 27 26 25 25 25 23 23 26 28 29 30 30 29
6 19 32 23 17 7 8 9 12 12 17 20 17 8 10 12 21 13 9 7 8 12 15 16 14 12 15 21 25 28 30 32 33 33 36 39 40 40 38 35 31 26 23 24 25 27 26 26 26 24 22 23 27 30
14 25 11 13 8 5 10 14 23 22 25 24 23 11 15 20 20 16 16 15 15 17 19 19 16 17 21 23 26 28 29 33 35 36 39 40 43 41 38 32 28 27 25 26 26 26 27 28 27 26 25 24 23 23
26 12 7 8 5 7 17 18 19 24 24 27 28 27 27 20 20 20 20 20 19 19 22 25 27 29 33 34 35 37 38 34 34 33 33 34 33 30 27 26 25 24 23 24 25 27 28 28 29 30 29 28 26 25
20 8 9 4 5 19 21 21 22 21 22 28 23 25 23 20 19 23 24 23 24 28 29 27 29 29 26 26 25 25 25 24 24 24 24 26 28 27 26 26 26 26 26 26 26 27 28 29 28 27 27 28 28 28
13 19 14 9 8 11 12 11 11 6 9 7 11 21 23 17 13 16 13 16 20 22 25 21 20 22 23 23 22 20 19 18 19 20 22 22 23 23 24 24 25 26 27 29 30 31 32 33 34 34 33 32 31 29
Wind_Direction
167 165 162 159 156 150 144 137 130 124 120 113 110 110 115 123 131 150 126 142 126 98 79 97 95 106 92 69 104 352 31 7 20 52 61 306 48 317 21 308 30 354 345 347 328 324 357 356 342 45 307 305 321 327
165 163 160 159 155 150 143 136 130 125 120 113 108 110 115 116 118 136 105 111 122 102 104 95 81 77 92 88 84 52 89 75 38 77 30 29 352 9 9 299 355 38 181 276 170 260 302 313 303 307 314 311 320 325
164 162 160 158 155 150 143 137 130 124 119 111 108 108 113 117 119 139 120 118 108 99 87 84 57 74 94 78 42 105 70 63 70 40 101 161 28 108 360 303 8 332 345 306 334 211 334 313 310 316 320 324 332 349
164 161 159 157 156 151 144 136 130 123 116 110 107 108 114 119 123 125 125 115 115 106 94 73 72 78 81 73 71 87 100 96 92 40 62 81 126 2 265 276 299 283 330 312 277 339 333 313 296 320 327 337 346 0
163 161 158 158 157 153 146 139 131 123 115 109 109 108 112 133 141 140 122 116 109 101 123 123 92 73 67 77 81 61 41 37 47 65 53 256 297 346 330 308 255 331 357 339 284 313 292 285 301 313 319 327 336 341
163 161 158 158 158 154 148 142 134 124 116 110 108 115 119 120 131 126 85 93 109 110 102 99 99 95 81 76 68 41 20 39 62 63 14 320 312 344 350 268 68 329 321 316 290 296 290 287 293 305 311 324 339 339
163 161 158 158 158 155 150 144 136 126 118 110 106 107 110 134 174 142 124 140 119 102 98 104 112 144 123 100 181 350 12 31 52 56 10 314 304 327 275 247 274 318 318 315 308 295 295 297 289 319 332 355 8 119
163 161 158 157 157 156 152 146 138 130 123 116 109 106 103 105 102 98 122 139 132 96 87 102 73 146 194 204 167 322 12 37 44 12 335 302 323 332 280 299 319 328 328 330 317 293 282 292 313 338 1 18 124 159
164 162 157 156 157 156 153 148 142 135 132 124 115 110 102 91 70 95 110 113 82 81 96 88 131 201 177 189 153 130 15 51 12 1 322 352 335 357 303 328 330 329 322 311 326 312 296 308 343 351 2 26 157 159
166 161 152 153 155 156 153 151 145 140 138 133 123 84 71 73 110 111 74 72 57 51 54 80 120 103 158 124 108 104 146 161 27 264 341 17 289 307 337 342 342 344 352 12 350 3 1 346 344 1 0 51 111 170
170 170 159 156 158 157 155 151 146 145 141 129 79 76 108 101 77 54 59 44 31 57 82 80 97 111 53 93 113 53 174 195 28 269 103 337 307 335 341 355 357 12 29 29 31 8 342 339 2 358 46 89 113 170
172 170 172 168 159 160 158 151 146 147 138 112 119 109 85 67 68 73 349 12 53 175 140 130 111 108 106 100 94 52 100 40 251 165 72 350 269 338 358 4 7 11 19 37 45 41 36 27 18 27 47 114 130 155
167 163 159 154 156 154 154 147 140 134 126 115 95 85 62 39 50 101 163 298 109 151 137 139 130 133 128 121 91 73 80 234 340 43 303 230 312 346 359 11 14 12 29 39 45 47 49 48 54 50 64 84 99 154
163 161 156 153 154 153 150 144 144 142 110 83 80 49 106 322 206 183 189 167 130 136 140 150 127 139 130 97 119 95 245 91 59 52 268 271 336 357 7 16 12 10 20 27 35 43 42 45 54 57 62 80 83 135
160 159 156 157 156 154 152 155 153 144 92 88 95 119 175 145 155 112 124 123 126 120 115 115 97 119 85 88 61 57 17 51 148 208 231 320 356 9 5 10 9 18 14 18 26 33 41 39 43 43 43 48 63 78
162 159 166 157 157 157 159 160 151 116 78 86 96 81 105 142 150 117 129 119 131 124 104 82 81 68 212 148 131 205 170 193 228 211 270 6 24 30 18 20 32 16 360 11 22 28 34 33 33 37 37 39 44 54
167 170 167 159 158 158 159 159 129 64 82 95 99 98 78 146 120 138 142 123 125 113 112 106 97 200 103 83 273 90 297 215 165 188 315 103 58 31 25 23 357 355 3 3 17 24 36 37 23 36 39 40 35 36
173 173 166 164 159 157 151 138 108 101 99 107 100 96 94 156 134 110 140 138 133 104 93 147 130 70 181 184 132 11 51 65 57 43 31 10 355 10 352 352 3 11 17 6 341 355 16 26 29 26 28 29 38 44
167 166 168 164 159 139 119 151 80 93 90 110 152 123 124 124 138 146 154 158 153 135 120 42 99 195 232 191 112 102 54 29 9 348 337 330 335 339 342 342 336 333 338 343 347 326 353 11 16 17 14 20 25 31
172 168 170 166 156 130 109 120 142 128 164 162 161 161 150 166 167 167 165 168 160 147 160 206 214 216 212 255 269 305 311 310 313 318 319 323 328 327 321 321 322 317 312 310 319 318 266 325 354 1 355 354 8 20
167 167 167 157 159 109 110 141 152 149 139 150 170 174 188 224 235 229 230 235 247 211 228 237 247 248 253 263 276 286 296 299 302 304 305 306 310 316 313 309 319 323 330 337 321 342 275 279 306 330 339 344 344 357
161 168 154 154 147 95 114 150 133 136 136 137 155 172 188 216 228 235 239 233 239 245 245 253 259 264 267 270 271 277 280 286 285 285 287 290 296 295 289 301 309 308 309 312 321 302 297 305 299 289 310 325 334 334
159 154 144 121 132 142 130 144 135 146 137 158 156 165 192 190 192 182 230 240 248 256 267 269 269 269 270 271 270 270 275 273 275 281 285 290 294 297 301 305 308 308 312 315 308 301 282 279 291 298 294 307 321 327
154 135 152 163 157 153 150 172 145 132 121 157 159 188 199 180 170 208 244 235 251 272 275 276 266 255 258 257 259 265 271 276 278 281 287 292 294 297 302 300 299 298 300 311 307 303 298 280 281 286 293 295 303 315
142 176 166 161 160 135 148 137 160 135 155 166 133 217 181 170 172 222 232 252 261 267 276 273 258 255 256 262 271 275 272 257 268 278 283 286 295 295 293 293 294 294 296 294 297 301 299 296 287 276 277 284 293 303
157 168 168 158 151 143 163 143 163 169 136 133 173 169 159 168 189 241 230 236 230 247 286 269 254 249 256 261 265 262 261 252 248 259 273 282 293 296 295 294 294 292 294 297 296 292 295 303 296 288 284 279 282 288
163 175 180 166 154 136 127 139 140 135 151 168 170 152 115 156 238 242 221 238 241 243 256 246 237 242 249 245 237 237 242 245 258 280 289 291 294 292 287 288 291 293 295 289 288 288 281 285 288 288 284 282 284 289
173 166 156 156 152 145 121 130 138 166 169 166 158 160 169 193 230 221 236 228 200 218 237 241 242 245 240 241 241 240 238 248 283 296 300 300 301 304 305 303 297 292 289 284 280 279 284 285 281 279 278 279 279 280
144 147 147 146 143 150 168 171 185 175 174 174 175 178 202 216 232 236 221 223 251 240 238 229 241 260 261 247 243 248 257 270 281 286 292 296 301 302 308 304 300 292 284 280 273 270 273 277 279 283 287 285 282 281
152 150 143 171 151 186 186 184 185 187 194 206 207 212 223 233 240 244 250 253 248 249 265 261 266 271 270 268 266 265 267 273 277 280 284 287 293 299 298 293 290 287 279 275 272 266 263 266 267 270 275 280 283 286
163 157 118 149 152 144 160 167 179 193 203 214 221 227 238 243 251 257 255 258 257 255 257 260 272 281 277 278 281 283 282 279 279 279 281 285 287 288 289 288 288 286 282 279 276 272 270 270 271 272 273 273 276 279
161 166 135 118 127 154 153 160 175 188 200 214 222 230 237 243 254 262 253 246 252 260 267 277 280 286 286 281 282 283 285 287 285 284 281 279 280 282 284 283 279 277 276 275 275 273 274 276 276 277 277 274 272 273
128 139 113 107 136 164 154 148 174 165 199 214 230 233 236 241 247 251 245 241 257 275 287 280 275 277 279 281 285 291 292 288 284 283 283 285 287 288 286 284 284 283 281 280 278 275 272 272 272 274 275 274 274 273